This is the latest recevied weather packets stored in our database for station/object SV9TNF-54. If no packets are shown the sender has not sent any weather packets the latest 10 day(s).
| Time | Temp. | Humidity | Pressure | Rain* | Wind** | Luminosity | Snow |
|---|---|---|---|---|---|---|---|
| 1787849498 | 32.22° C | 36% | 1014.6 hPa | 0 mm | 17.88 m/s, 36° | - | - |
| 1787849203 | 32.78° C | 35% | 1014.6 hPa | 0 mm | 19.22 m/s, 11° | - | - |
| 1787848898 | 32.78° C | 35% | 1014.6 hPa | 0 mm | 19.22 m/s, 11° | - | - |
| 1787848598 | 32.78° C | 35% | 1014.6 hPa | 0 mm | 19.22 m/s, 11° | - | - |
| 1787848298 | 32.78° C | 35% | 1014.6 hPa | 0 mm | 19.22 m/s, 11° | - | - |
| 1787847998 | 32.78° C | 35% | 1014.6 hPa | 0 mm | 19.22 m/s, 11° | - | - |
| 1787847698 | 32.78° C | 35% | 1014.6 hPa | 0 mm | 19.22 m/s, 11° | - | - |
| 1787847397 | 32.78° C | 35% | 1014.6 hPa | 0 mm | 24.14 m/s, 8° | - | - |
| 1787847097 | 32.78° C | 35% | 1014.6 hPa | 0 mm | 24.14 m/s, 8° | - | - |
| 1787846798 | 32.78° C | 35% | 1014.6 hPa | 0 mm | 24.14 m/s, 8° | - | - |
| 1787846497 | 32.78° C | 35% | 1014.6 hPa | 0 mm | 24.14 m/s, 8° | - | - |
| 1787846197 | 33.89° C | 34% | 1014.2 hPa | 0 mm | 37.1 m/s, 41° | - | - |
| 1787845897 | 33.89° C | 34% | 1014.2 hPa | 0 mm | 37.1 m/s, 41° | - | - |
| 1787845597 | 33.89° C | 34% | 1014.2 hPa | 0 mm | 37.1 m/s, 41° | - | - |
| 1787845297 | 33.89° C | 34% | 1014.2 hPa | 0 mm | 37.1 m/s, 41° | - | - |
| 1787844997 | 33.89° C | 34% | 1014.2 hPa | 0 mm | 37.1 m/s, 41° | - | - |
| 1787844696 | 33.89° C | 34% | 1014.2 hPa | 0 mm | 37.1 m/s, 41° | - | - |
| 1787844396 | 33.89° C | 34% | 1014.2 hPa | 0 mm | 21.01 m/s, 27° | - | - |
| 1787844096 | 33.89° C | 34% | 1014.2 hPa | 0 mm | 21.01 m/s, 27° | - | - |
| 1787843796 | 33.89° C | 34% | 1014.2 hPa | 0 mm | 21.01 m/s, 27° | - | - |
| 1787843496 | 33.89° C | 34% | 1014.2 hPa | 0 mm | 21.01 m/s, 27° | - | - |
| 1787843196 | 33.89° C | 34% | 1014.2 hPa | 0 mm | 21.01 m/s, 27° | - | - |
| 1787842896 | 33.89° C | 34% | 1014.2 hPa | 0 mm | 21.01 m/s, 27° | - | - |
| 1787842596 | 33.89° C | 33% | 1014.2 hPa | 0 mm | 27.27 m/s, 28° | - | - |
| 1787842296 | 33.89° C | 33% | 1014.2 hPa | 0 mm | 27.27 m/s, 28° | - | - |
* Rain latest hour (hover to see other rain measurements)
** Current wind speed in m/s (hover to see current wind gust speed)